KBUFCYYR

Guest
Details From KBUF - Buffalo Niagara Intl
To CYYR - Goose Bay
Flight Number -
Tags Generated
Created
Modified
Stats Distance 958 nm / 1,775 km
Max Altitude 0 ft / 0 m
Waypoints 5
Social Downloads 0
Likes 0
Share VATSIM

Download

Looking for another format? Having issues loading an existing format? Contact us
Advertisement - Login to hide

Notes

Generated

Route

KBUF FIRON XBG13 AVTEX CYYR

ID Type Via Altitude Latitude Longitude Leg Dist Tot Dist Heading (true) Name
O KBUF APT - 0 ft / 0 m 42.94692˚ -78.74169˚ - 0 nm - -
FIRON FIX - 0 ft / 0 m 45.84333˚ -74.71639˚ 245 nm 245 nm 43° / 46° -
XBG13 FIX - 0 ft / 0 m 48.35167˚ -70.67261˚ 223 nm 468 nm 46° / 49° -
AVTEX FIX - 0 ft / 0 m 53.23757˚ -60.59151˚ 481 nm 950 nm 49° / 57° -
O CYYR APT - 0 ft / 0 m 53.33389˚ -60.43639˚ 8 nm 958 nm 44° / 44° -

Altitude Profile

Advertisement - Login to hide

Weather


0- 5 10 15 20 25 30 35+ Temperature / ° C

Clouds and Precipitation
Forecast for 2018-05-23 06:00 UTC. Updated 20 minutes ago

Ground ~20,000 ft ~40,000 ft Winds

KBUF

Details ICAO KBUF (BUF)
Name Buffalo Niagara Intl
Region United States
Timezone America/New_York (UTC-4.0)
Stats Elevation 724 ft / 221 m (AMSL)
Location 42.940487° -78.730606°
Runways 2
Magnetic Variation 10.711° W

METAR

KBUF 230309Z 00000KT 2SM BR SCT005 OVC012 14/13 A2995

Decode

TAF

TAF AMD KBUF 230225Z 2302/2324 28005KT 2SM BR OVC002 FM230800 VRB03KT 3SM BR SCT005 FM230900 VRB03KT 1SM BR BKN002 FM231300 24010KT P6SM SCT015 FM231700 24012KT P6SM SKC

Decode

Departure Runways

ID Width Length Bearing (true) Bearing (mag) Surface Threshold Offset Overrun Length
05 150 ft / 46 m 8,824 ft / 2,690 m 43.83° 54.54° Asphalt 535 ft / 163 m 0 ft / 0 m
14 150 ft / 46 m 7,153 ft / 2,180 m 126.75° 137.46° Asphalt 320 ft / 98 m 0 ft / 0 m
23 150 ft / 46 m 8,824 ft / 2,690 m 223.84° 234.55° Asphalt 726 ft / 221 m 0 ft / 0 m
32 150 ft / 46 m 7,153 ft / 2,180 m 306.77° 317.48° Asphalt 720 ft / 219 m 0 ft / 0 m

CYYR

Details ICAO CYYR (YYR)
Name Goose Bay
Region Canada
Timezone America/Goose_Bay (UTC-3.0)
Stats Elevation 160 ft / 49 m (AMSL)
Location 53.318820° -60.423890°
Runways 2
Magnetic Variation 20.869° W

METAR

CYYR 230336Z 31003KT 3SM -SHSN BKN028 OVC058 M00/M01 A2981 RMK SC5SC3 SLP096

Decode

TAF

TAF AMD CYYR 230310Z 2303/2324 35005KT P6SM FEW009 SCT020 BKN025 TEMPO 2303/2305 3SM -SHSN SCT009 BKN020 FM230600 32008KT P6SM FEW070 FM231400 32012KT P6SM BKN040 RMK NXT FCST BY 230600Z

Decode

Destination Runways

ID Width Length Bearing (true) Bearing (mag) Surface Threshold Offset Overrun Length
08 209 ft / 64 m 11,055 ft / 3,369 m 54.70° 75.57° Asphalt 0 ft / 0 m 1,000 ft / 305 m
16 200 ft / 61 m 9,515 ft / 2,900 m 132.96° 153.83° Asphalt 0 ft / 0 m 0 ft / 0 m
26 209 ft / 64 m 11,055 ft / 3,369 m 234.73° 255.60° Asphalt 0 ft / 0 m 1,000 ft / 305 m
34 200 ft / 61 m 9,515 ft / 2,900 m 312.99° 333.86° Asphalt 0 ft / 0 m 500 ft / 152 m

Popular Alternatives